• Join FlightAware (Why Join?)
  • Login
  • US Flag 
02:49PM EDT


 

Airport Tracker/Info


-or-


 

Live Flight TrackerFlight Track Log ✈ LOF3416 ✈ 08-Jul-2013 ✈ KORD - KSGF

Flight Track Log - Related Links

Times and Time Zones

All times are in EDT time to prevent confusion due to time zone crossing. See the LOF3416 flight status page for this flight to view local times or setup timezone preferences in your user account.

Time Position Orientation Groundspeed Altitude Reporting Facility
EDT Latitude Longitude Course Direction KTS MPH feet Rate Location/Type
05:51PM 41.9167 -87.9333 203° Southwest 170 196 3,400  Level Chicago TRACON
05:52PM 41.8667 -87.9500 194° South 213 245 5,400 1,620 Climbing Chicago TRACON
05:53PM 41.8172 -87.9422 173° South 228 262 6,500 1,800 Climbing Chicago Center
05:54PM 41.7375 -87.9661 193° South 258 297 8,900 1,980 Climbing Chicago Center
05:55PM 41.6681 -88.0086 205° Southwest 273 314 10,600 1,500 Climbing Chicago Center
05:56PM 41.5947 -88.0567 206° Southwest 294 338 12,100 1,320 Climbing Chicago Center
05:57PM 41.7595 -88.1889 203° Southwest  Level Estimated
05:57PM 41.5167 -88.1075 206° Southwest 316 364 13,400  Level Chicago Center
05:58PM 41.4167 -88.1717 206° Southwest 345 397 14,700 1,320 Climbing Chicago Center
05:59PM 41.3250 -88.2164 200° South 359 413 16,200 1,380 Climbing Chicago Center
06:00PM 41.2314 -88.2589 199° South 360 414 17,600 1,380 Climbing Chicago Center
06:01PM 41.1378 -88.3017 199° South 360 414 19,100 1,560 Climbing Chicago Center
06:02PM 41.0247 -88.3525 199° South 360 414 20,900 1,560 Climbing Chicago Center
06:03PM 40.9300 -88.3936 198° South 361 415 22,400 1,380 Climbing Chicago Center
06:04PM 40.8356 -88.4364 199° South 360 414 23,800 1,260 Climbing Chicago Center
06:05PM 40.7558 -88.5039 213° Southwest 351 404 25,100 1,200 Climbing Chicago Center
06:07PM 40.6794 -88.5847 219° Southwest 353 406 26,300 1,200 Climbing Chicago Center
06:08PM 40.5889 -88.6839 220° Southwest 354 407 27,700 780 Climbing Chicago Center
06:09PM 40.5097 -88.7664 218° Southwest 361 415 28,000 120 Climbing Chicago Center
06:10PM 40.4311 -88.8528 220° Southwest 383 441 28,000  Level Chicago Center
06:11PM 40.3392 -88.9500 219° Southwest 411 473 28,000  Level Chicago Center
06:12PM 40.2231 -89.0736 219° Southwest 440 506 28,000  Level Chicago Center
06:13PM 40.1253 -89.1769 219° Southwest 449 517 28,000  Level Chicago Center
06:13PM 40.0639 -89.2392 218° Southwest 451 519 28,000  Level Kansas City Center
06:14PM 39.9461 -89.3642 219° Southwest 453 521 28,000  Level Kansas City Center
06:16PM 39.8456 -89.4683 219° Southwest 458 527 28,000  Level Kansas City Center
06:17PM 39.7472 -89.5722 219° Southwest 456 525 28,000  Level Kansas City Center
06:18PM 39.6453 -89.6778 219° Southwest 455 524 28,000  Level Kansas City Center
06:19PM 39.5458 -89.7797 218° Southwest 456 525 28,000  Level Kansas City Center
06:20PM 39.4475 -89.8833 219° Southwest 456 525 28,000  Level Kansas City Center
06:21PM 39.3492 -89.9850 219° Southwest 455 524 28,000  Level Kansas City Center
06:22PM 39.2294 -90.1067 218° Southwest 458 527 28,000  Level Kansas City Center
06:23PM 39.1319 -90.2086 219° Southwest 456 525 28,000  Level Kansas City Center
06:24PM 39.0331 -90.3103 219° Southwest 456 525 28,000  Level Kansas City Center
06:25PM 38.9244 -90.4206 218° Southwest 456 525 28,000  Level Kansas City Center
06:26PM 38.8364 -90.5364 226° Southwest 447 514 28,000  Level Kansas City Center
06:27PM 38.7614 -90.6686 234° Southwest 452 520 28,000  Level Kansas City Center
06:28PM 38.6861 -90.8089 236° Southwest 455 524 28,000  Level Kansas City Center
06:29PM 38.6150 -90.9417 236° Southwest 455 524 28,000  Level Kansas City Center
06:30PM 38.5442 -91.0742 236° Southwest 454 522 28,000  Level Kansas City Center
06:31PM 38.4717 -91.2075 235° Southwest 456 525 28,000  Level Kansas City Center
06:32PM 38.3850 -91.3669 235° Southwest 456 525 28,000  Level Kansas City Center
06:33PM 38.3147 -91.4958 235° Southwest 454 522 28,000  Level Kansas City Center
06:34PM 38.2414 -91.6281 235° Southwest 454 522 28,000 -360 Level Kansas City Center
06:35PM 38.1711 -91.7578 235° Southwest 449 517 27,300 -1,260 Descending Kansas City Center
06:36PM 38.0986 -91.8864 234° Southwest 448 516 25,400 -1,980 Descending Kansas City Center
06:37PM 38.0283 -92.0128 235° Southwest 443 510 23,300 -2,040 Descending Kansas City Center
06:38PM 37.9597 -92.1364 235° Southwest 437 503 21,300 -1,920 Descending Kansas City Center
06:39PM 37.8853 -92.2703 235° Southwest 406 467 19,400 -1,200 Descending Kansas City Center
06:40PM 37.8236 -92.3736 233° Southwest 378 435 18,900 -960 Descending Kansas City Center
06:41PM 37.7664 -92.4789 236° Southwest 368 423 17,500 -1,380 Descending Kansas City Center
06:42PM 37.7097 -92.5783 234° Southwest 355 409 16,100 -1,320 Descending Kansas City Center
06:43PM 37.6531 -92.6806 235° Southwest 330 380 14,800 -1,440 Descending Kansas City Center
06:44PM 37.6011 -92.7697 234° Southwest 317 365 13,200 -1,740 Descending Kansas City Center
06:45PM 37.5508 -92.8581 234° Southwest 313 360 11,300 -1,680 Descending Kansas City Center
06:46PM 37.5139 -92.9492 243° Southwest 299 344 9,800 -1,380 Descending Kansas City Center
06:48PM 37.4797 -93.0319 243° Southwest 281 323 8,500 -1,680 Descending Kansas City Center
06:49PM 37.4539 -93.1319 252° West 261 300 6,400 -1,620 Descending Kansas City Center
06:50PM 37.4389 -93.2144 257° West 250 288 5,200 -1,200 Descending Kansas City Center
06:51PM 37.4231 -93.2919 256° West 239 275 4,000 -660 Descending Kansas City Center
06:52PM 37.3956 -93.3603 243° Southwest 227 261 3,900 -540 Descending Kansas City Center
06:53PM 37.3558 -93.4144 227° Southwest 216 249 2,900 -720 Descending Kansas City Center
06:54PM 37.3117 -93.4444 208° Southwest 199 229 2,500 -420 Descending Kansas City Center
06:55PM 37.2853 -93.4267 152° Southeast 160 184 2,100 -420 Descending Kansas City Center
06:57PM 37.2457 -93.3886 202° Southwest  Level Estimated